Погода в Луговском

Россия / Саратовская область     50°38′02″N   46°28′25″E
темп.,
°C
ветер,
м/с
пор.,
м/с
влажн.,
%
обл.,
%
осадки,
мм/ч
давл.,
гПа
погр.,
м
4 марта, чт
чт401:00−7зсз510890 0.0 1015198
04:00−8з47910 0.0 1015120
07:00−7зюз511930 0.0 1014234
10:00−3зюз7139033 0.0 1013683
13:000зюз91487100 0.1 1012980
16:00+1зюз8148899 0.1 1011809
19:000юз6168230 0.0 1009465
22:00−1юз7167924 0.0 1009436
5 марта, пт
пт501:00−1юз715820 0.0 1008372
04:00−1юз7158510 0.0 1007402
07:00+1юз8159299 0.0 1006626
10:00+1юз81497100 0.1 1006528
13:00+2юз713100100 0.1 1007473
16:00+2зюз510100100 0.1 1008324
19:00+1юз3599100 0.6 1009146
22:00+1з3698100 0.7 1011173
6 марта, сб
сб601:00−1зсз2298100 0.1 101241
04:00−2ссв3498100 0.8 1011144
07:00−3св4797100 1.0 1010270
10:00−3ссв6996100 3.1 1010369
13:00−3с81194100 1.6 1010624
16:00−3с5887100 1.8 1011594
19:00−5ссз4991100 0.0 1013296
22:00−8ссз51089100 0.0 1016223
7 марта, вс
вс701:00−10ссз478959 0.0 1016124
04:00−11ссз348830 0.0 101883
07:00−12сз23910 0.0 101928
10:00−9зюз24890 0.0 1020152
13:00−6юз58820 0.0 1018390
16:00−4юз512770 0.0 1016791
19:00−5ююз5127776 0.0 1013218
22:00−3юз7167788 0.0 1012672
8 марта, пн
пн801:00−3юз91873100 0.0 1009692
04:00−3юз91973100 0.0 1007721
07:00−3юз81780100 0.0 1006775
10:00−2зюз91586100 0.0 1006829
13:000зюз81286100 0.1 10071204
16:00−1з5108195 0.3 1008836
19:00−4зсз348595 0.1 100951
22:00−7зсз228560 0.1 101121